Location: Ffald-y-Brenin
(52.0833°N, 4.0000°W)
Time: 17:54:54
(UTC+00:00)

Cosmos 1656 Rocket - Pass Details

Date: 18 February 2020
Orbit: 794 x 848 km, 71.1° (Epoch: 27 March)

Event Time Altitude Azimuth Distance (km) Brightness Sun altitude
Rises 06:35:51 0° 325° (NW) 3,406 6.4 -8.4°
Reaches altitude 10° 06:38:27 10° 318° (NW) 2,473 5.7 -8.0°
Maximum altitude 06:43:37 38° 252° (WSW) 1,277 4.2 -7.2°
Drops below altitude 10° 06:48:49 10° 186° (S) 2,468 6.2 -6.4°
Sets 06:51:24 0° 179° (S) 3,398 7.0 -6.0°
